Weslaco, TX

5:14 PM CDT on October 19, 2017 (GMT -0500)
Weslaco

Weather History for KT65 - December, 2012

Change the Weather History Date:

Wednesday, December 19, 2012

  Actual Average (KMFE) Record (KMFE)
Temperature  
Mean Temperature 79 °F -  
Max Temperature 86 °F 68 °F 89 °F (2012)
Min Temperature 72 °F 46 °F 28 °F (1933)
Cooling Degree Days 14    
Growing Degree Days 29 (Base 50)    
Moisture  
Dew Point 68 °F    
Average Humidity 73    
Maximum Humidity 87    
Minimum Humidity 51    
Precipitation  
Precipitation 0.00 in - - ()
Sea Level Pressure  
Sea Level Pressure 29.76 in    
Wind  
Wind Speed 16 mph (SSE)    
Max Wind Speed 24 mph    
Max Gust Speed 34 mph    
Visibility 8 miles    
Events      
Averages and records for this station are not official NWS values.
T = Trace of Precipitation, MM = Missing Value Source: NWS Daily Summary

Daily Weather History Graph

Daily Weather History Graph

Search for Another Location

Airport or City:

Trip Planner

Search our weather history database for the weather conditions in past years. The results will help you decide how hot, cold, wet, or windy it might be!

Date:

Astronomy

Dec. 19, 2012 Rise Set
Actual Time 7:14 AM CST 5:44 PM CST
Civil Twilight 6:48 AM CST 6:09 PM CST
Nautical Twilight 6:20 AM CST 6:38 PM CST
Astronomical Twilight 5:51 AM CST 7:06 PM CST
Moon 12:01 PM CST No Moon Set
Length of Visible Light 11h 20m
Length of Day
10h 30m
Waxing Crescent, 45% of the Moon is Illuminated
Dec 19
Waxing Crescent
Dec 19
First Quarter
Dec 28
Full
Jan 4
Last Quarter
Jan 11
New

Hourly Weather History & Observations

Time (CST) Temp. Heat Index Dew Point Humidity Pressure Visibility Wind Dir Wind Speed Gust Speed Precip Events Conditions
12:15 AM 74.3 °F - 68.5 °F 82% 29.83 in 10.0 mi SSE 13.8 mph 20.7 mph N/A   Overcast
12:35 AM 74.3 °F - 68.5 °F 82% 29.82 in 10.0 mi SSE 11.5 mph - N/A   Overcast
12:55 AM 73.9 °F - 68.5 °F 83% 29.81 in 10.0 mi SSE 13.8 mph 19.6 mph N/A   Overcast
1:15 AM 73.8 °F - 68.4 °F 83% 29.81 in 10.0 mi SSE 16.1 mph 21.9 mph N/A   Overcast
1:35 AM 73.9 °F - 68.4 °F 83% 29.81 in 7.0 mi SSE 15.0 mph 20.7 mph N/A   Overcast
1:55 AM 74.3 °F - 68.5 °F 82% 29.81 in 7.0 mi SSE 11.5 mph 19.6 mph N/A   Overcast
2:15 AM 74.3 °F - 68.5 °F 82% 29.80 in 7.0 mi SSE 15.0 mph 20.7 mph N/A   Overcast
2:35 AM 74.3 °F - 68.5 °F 82% 29.79 in 7.0 mi SSE 15.0 mph 21.9 mph N/A   Overcast
2:55 AM 74.7 °F - 68.5 °F 81% 29.79 in 7.0 mi SSE 15.0 mph 18.4 mph N/A   Overcast
3:15 AM 74.7 °F - 68.5 °F 81% 29.79 in 7.0 mi SSE 16.1 mph 23.0 mph N/A   Overcast
3:35 AM 74.8 °F - 68.9 °F 82% 29.78 in 7.0 mi SSE 18.4 mph 25.3 mph N/A   Overcast
3:55 AM 74.5 °F - 68.4 °F 81% 29.77 in 7.0 mi SSE 18.4 mph 24.2 mph N/A   Overcast
4:15 AM 74.7 °F - 68.5 °F 81% 29.77 in 7.0 mi SSE 16.1 mph 23.0 mph N/A   Overcast
4:35 AM 74.8 °F - 68.5 °F 81% 29.77 in 7.0 mi SSE 17.3 mph 26.5 mph N/A   Overcast
4:55 AM 74.8 °F - 68.9 °F 82% 29.77 in 7.0 mi SSE 12.7 mph 21.9 mph N/A   Overcast
5:15 AM 74.8 °F - 68.5 °F 81% 29.77 in 7.0 mi SSE 15.0 mph 21.9 mph N/A   Overcast
5:35 AM 75.0 °F - 68.7 °F 81% 29.77 in 7.0 mi SSE 17.3 mph 26.5 mph N/A   Overcast
5:55 AM 74.8 °F - 68.5 °F 81% 29.77 in 7.0 mi South 19.6 mph 25.3 mph N/A   Overcast
6:15 AM 75.2 °F - 68.4 °F 79% 29.77 in 7.0 mi South 19.6 mph 27.6 mph N/A   Overcast
6:35 AM 74.8 °F - 68.5 °F 81% 29.77 in 7.0 mi SSE 16.1 mph 25.3 mph N/A   Overcast
6:55 AM 74.8 °F - 68.5 °F 81% 29.77 in 7.0 mi South 20.7 mph 28.8 mph N/A   Overcast
7:15 AM 74.8 °F - 68.4 °F 80% 29.78 in 10.0 mi South 17.3 mph 25.3 mph N/A   Overcast
7:35 AM 74.8 °F - 68.2 °F 80% 29.78 in 7.0 mi South 20.7 mph 25.3 mph N/A   Overcast
7:55 AM 75.2 °F - 68.4 °F 79% 29.78 in 7.0 mi South 19.6 mph 24.2 mph N/A   Overcast
8:15 AM 75.4 °F - 68.2 °F 78% 29.79 in 7.0 mi South 16.1 mph 29.9 mph N/A   Overcast
8:35 AM 75.6 °F - 68.2 °F 78% 29.79 in 7.0 mi South 20.7 mph 32.2 mph N/A   Overcast
8:55 AM 76.1 °F - 68.2 °F 76% 29.80 in 7.0 mi South 19.6 mph 31.1 mph N/A   Overcast
9:15 AM 76.5 °F - 68.2 °F 75% 29.80 in 7.0 mi South 19.6 mph 32.2 mph N/A   Overcast
9:35 AM 77.5 °F - 67.5 °F 71% 29.80 in 7.0 mi South 24.2 mph 32.2 mph N/A   Overcast
9:55 AM 79.3 °F - 67.5 °F 67% 29.80 in 7.0 mi South 21.9 mph 34.5 mph N/A   Mostly Cloudy
10:15 AM 80.1 °F 82.3 °F 67.1 °F 64% 29.80 in 7.0 mi South 21.9 mph 33.4 mph N/A   Overcast
10:35 AM 79.5 °F - 67.3 °F 66% 29.80 in 7.0 mi South 19.6 mph 29.9 mph N/A   Overcast
10:55 AM 80.8 °F 83.1 °F 66.6 °F 62% 29.80 in 7.0 mi South 21.9 mph 31.1 mph N/A   Mostly Cloudy
11:15 AM 81.9 °F 84.1 °F 66.2 °F 59% 29.79 in 7.0 mi South 21.9 mph 29.9 mph N/A   Overcast
11:35 AM 82.8 °F 84.9 °F 66.2 °F 57% 29.77 in 7.0 mi South 20.7 mph 31.1 mph N/A   Mostly Cloudy
11:55 AM 82.9 °F 85.6 °F 67.1 °F 59% 29.76 in 7.0 mi South 18.4 mph 29.9 mph N/A   Overcast
12:15 PM 84.6 °F 87.4 °F 67.3 °F 56% 29.75 in 7.0 mi South 19.6 mph 26.5 mph N/A   Overcast
12:35 PM 84.2 °F 86.8 °F 67.1 °F 56% 29.75 in 7.0 mi SSE 20.7 mph 26.5 mph N/A   Overcast
12:55 PM 83.8 °F 86.5 °F 67.1 °F 57% 29.73 in 7.0 mi SSE 24.2 mph 31.1 mph N/A   Mostly Cloudy
1:15 PM 84.6 °F 87.1 °F 66.9 °F 55% 29.70 in 7.0 mi South 21.9 mph 34.5 mph N/A   Scattered Clouds
1:35 PM 84.9 °F 87.6 °F 67.1 °F 55% 29.70 in 10.0 mi SSE 21.9 mph 27.6 mph N/A   Scattered Clouds
1:55 PM 85.3 °F 87.9 °F 67.1 °F 54% 29.68 in 7.0 mi SSE 20.7 mph 28.8 mph N/A   Clear
2:15 PM 85.6 °F 88.2 °F 66.6 °F 53% 29.69 in 7.0 mi SSE 21.9 mph 26.5 mph N/A   Clear
2:35 PM 86.2 °F 88.4 °F 66.4 °F 51% 29.68 in 7.0 mi SSE 20.7 mph 25.3 mph N/A   Clear
2:55 PM 85.1 °F 87.4 °F 66.2 °F 53% 29.68 in 7.0 mi SSE 19.6 mph 28.8 mph N/A   Clear
3:15 PM 84.4 °F 86.6 °F 66.0 °F 54% 29.69 in 7.0 mi South 19.6 mph 27.6 mph N/A   Clear
3:35 PM 84.4 °F 86.6 °F 66.2 °F 54% 29.69 in 7.0 mi SSE 19.6 mph 27.6 mph N/A   Clear
3:55 PM 83.8 °F 86.0 °F 66.2 °F 55% 29.68 in 10.0 mi SSE 17.3 mph 27.6 mph N/A   Clear
4:15 PM 83.5 °F 85.5 °F 66.0 °F 55% 29.68 in 10.0 mi SSE 19.6 mph 25.3 mph N/A   Clear
4:35 PM 82.4 °F 84.4 °F 65.7 °F 57% 29.68 in 10.0 mi SSE 19.6 mph 27.6 mph N/A   Clear
4:55 PM 81.1 °F 83.2 °F 66.2 °F 60% 29.68 in 10.0 mi SSE 17.3 mph 27.6 mph N/A   Clear
5:15 PM 80.1 °F 82.2 °F 66.4 °F 63% 29.69 in 10.0 mi SSE 21.9 mph 28.8 mph N/A   Clear
5:35 PM 79.0 °F - 67.1 °F 67% 29.68 in 10.0 mi South 19.6 mph 25.3 mph N/A   Clear
5:55 PM 77.9 °F - 66.7 °F 68% 29.68 in 10.0 mi South 15.0 mph 26.5 mph N/A   Clear
6:15 PM 77.0 °F - 67.1 °F 71% 29.69 in 10.0 mi SSE 19.6 mph 23.0 mph N/A   Clear
6:35 PM 76.5 °F - 67.1 °F 73% 29.70 in 10.0 mi South 16.1 mph 26.5 mph N/A   Clear
6:55 PM 75.9 °F - 67.3 °F 74% 29.71 in 10.0 mi South 17.3 mph 21.9 mph N/A   Clear
7:15 PM 75.4 °F - 67.6 °F 77% 29.72 in 10.0 mi South 13.8 mph 19.6 mph N/A   Clear
7:35 PM 75.2 °F - 68.0 °F 78% 29.73 in 10.0 mi SSE 15.0 mph 21.9 mph N/A   Clear
7:55 PM 74.7 °F - 68.0 °F 80% 29.74 in 10.0 mi South 11.5 mph 19.6 mph N/A   Clear
8:15 PM 74.5 °F - 68.2 °F 81% 29.74 in 10.0 mi South 15.0 mph 20.7 mph N/A   Clear
8:35 PM 74.3 °F - 68.4 °F 82% 29.75 in 7.0 mi South 15.0 mph 19.6 mph N/A   Clear
8:55 PM 73.9 °F - 68.4 °F 83% 29.75 in 7.0 mi South 11.5 mph 18.4 mph N/A   Clear
9:15 PM 73.8 °F - 68.5 °F 84% 29.76 in 7.0 mi South 11.5 mph - N/A   Scattered Clouds
9:35 PM 73.6 °F - 68.7 °F 85% 29.77 in 7.0 mi South 11.5 mph 16.1 mph N/A   Scattered Clouds
9:55 PM 73.4 °F - 68.7 °F 85% 29.77 in 7.0 mi South 10.4 mph - N/A   Scattered Clouds
10:15 PM 73.4 °F - 68.7 °F 85% 29.78 in 7.0 mi South 11.5 mph - N/A   Scattered Clouds
10:35 PM 73.0 °F - 68.5 °F 86% 29.78 in 7.0 mi South 10.4 mph - N/A   Scattered Clouds
10:55 PM 72.9 °F - 68.5 °F 86% 29.78 in 7.0 mi South 9.2 mph - N/A   Scattered Clouds
11:15 PM 72.9 °F - 68.5 °F 86% 29.79 in 5.0 mi South 12.7 mph - N/A   Scattered Clouds
11:35 PM 72.9 °F - 68.5 °F 86% 29.79 in 5.0 mi South 10.4 mph - N/A   Scattered Clouds
11:55 PM 72.9 °F - 68.7 °F 87% 29.80 in 5.0 mi South 10.4 mph 17.3 mph N/A   Scattered Clouds